TimeCDT,TemperatureF,Dew PointF,Humidity,Sea Level PressureIn,VisibilityMPH,Wind Direction,Wind SpeedMPH,Gust SpeedMPH,PrecipitationIn,Events,Conditions,WindDirDegrees,DateUTC
12:53 AM,81.0,73.0,77,29.96,10.0,SSE,11.5,19.6,N/A,,Partly Cloudy,160,2012-10-14 05:53:00
1:53 AM,81.0,73.0,77,29.96,10.0,South,9.2,17.3,N/A,,Clear,170,2012-10-14 06:53:00
2:53 AM,81.0,73.0,77,29.94,10.0,South,10.4,-,N/A,,Clear,170,2012-10-14 07:53:00
3:53 AM,80.1,73.0,79,29.93,10.0,South,9.2,-,N/A,,Clear,170,2012-10-14 08:53:00
4:53 AM,80.1,73.0,79,29.93,10.0,South,8.1,17.3,N/A,,Scattered Clouds,170,2012-10-14 09:53:00
5:53 AM,80.1,73.0,79,29.95,10.0,South,6.9,-,N/A,,Partly Cloudy,170,2012-10-14 10:53:00
6:53 AM,80.1,73.9,81,29.98,9.0,South,3.5,-,N/A,,Mostly Cloudy,180,2012-10-14 11:53:00
7:53 AM,80.1,73.9,81,29.99,8.0,Variable,5.8,-,N/A,,Mostly Cloudy,0,2012-10-14 12:53:00
8:53 AM,82.0,73.0,74,30.01,9.0,South,6.9,-,N/A,,Scattered Clouds,180,2012-10-14 13:53:00
9:53 AM,84.0,73.0,69,30.04,10.0,South,8.1,-,N/A,,Mostly Cloudy,180,2012-10-14 14:53:00
10:03 AM,84.2,71.6,66,30.04,10.0,South,6.9,-,N/A,,Mostly Cloudy,170,2012-10-14 15:03:00
10:19 AM,84.2,71.6,66,30.04,10.0,South,11.5,-,N/A,,Scattered Clouds,180,2012-10-14 15:19:00
10:53 AM,84.9,71.1,63,30.05,10.0,South,8.1,17.3,N/A,,Scattered Clouds,170,2012-10-14 15:53:00
11:53 AM,84.9,71.1,63,30.05,10.0,SSE,8.1,-,N/A,,Partly Cloudy,160,2012-10-14 16:53:00
12:53 PM,86.0,70.0,59,30.04,10.0,SSE,10.4,-,N/A,,Clear,160,2012-10-14 17:53:00
1:53 PM,87.1,70.0,57,30.01,10.0,SSE,8.1,-,N/A,,Clear,150,2012-10-14 18:53:00
2:53 PM,89.1,71.1,55,29.99,10.0,SE,13.8,-,N/A,,Clear,130,2012-10-14 19:53:00
3:53 PM,84.9,71.1,63,29.99,10.0,SE,9.2,-,N/A,,Clear,140,2012-10-14 20:53:00
4:53 PM,84.0,71.1,65,29.98,10.0,SE,10.4,-,N/A,,Clear,140,2012-10-14 21:53:00
5:53 PM,84.0,71.1,65,29.98,10.0,SSE,9.2,-,N/A,,Clear,160,2012-10-14 22:53:00
6:53 PM,82.0,71.1,69,29.99,10.0,SSE,6.9,-,N/A,,Clear,160,2012-10-14 23:53:00
7:53 PM,81.0,72.0,74,29.99,10.0,South,5.8,-,N/A,,Clear,170,2012-10-15 00:53:00
8:53 PM,80.1,72.0,76,30.01,10.0,SSE,3.5,-,N/A,,Clear,160,2012-10-15 01:53:00
9:53 PM,79.0,72.0,79,30.01,10.0,SSE,3.5,-,N/A,,Clear,150,2012-10-15 02:53:00
10:53 PM,77.0,72.0,84,30.03,10.0,Calm,Calm,-,N/A,,Clear,0,2012-10-15 03:53:00
11:53 PM,75.0,71.1,87,30.02,9.0,Calm,Calm,-,N/A,,Clear,0,2012-10-15 04:53:00